FW6259 Weather Reports


time (UTC)temp
F
wind
direction
speed
knots
gust
knots
rain 1hr
in
rain 24hr
in
rain mn
in
humidity
%
barometer
mb
20260509134508 32 70 0.9 3.5 0.00 0.06 0.03 96 999.4
20260509133059 32 357 0.9 6.1 0.00 0.06 0.03 96 999.5
20260509131613 33 47 0.0 3.5 0.00 0.06 0.03 97 999.9
20260509130056 33 341 0.0 2.6 0.00 0.06 0.03 97 1000.0
20260509124502 33 38 0.0 3.5 0.00 0.06 0.03 97 1000.2
20260509123102 33 145 0.0 1.7 0.00 0.06 0.03 97 1000.6
20260509121551 33 359 0.0 0.9 0.01 0.06 0.03 97 1000.8
20260509120045 33 222 0.0 0.0 0.01 0.06 0.03 97 1000.9
20260509114611 33 222 0.0 0.0 0.01 0.06 0.03 97 1001.2
20260509113055 33 222 0.0 0.0 0.01 0.06 0.03 97 1001.3
20260509111551 33 222 0.0 0.0 0.00 0.05 0.02 97 1001.5
20260509110108 33 222 0.0 0.0 0.00 0.05 0.02 96 1001.6
20260509104613 33 222 0.0 0.0 0.01 0.05 0.02 96 1001.8
20260509103050 33 222 0.0 0.9 0.01 0.05 0.02 96 1001.9
20260509101506 33 222 0.0 0.0 0.01 0.05 0.02 96 1002.2
20260509100100 33 222 0.0 0.0 0.01 0.05 0.02 96 1002.3
20260509094609 33 222 0.0 0.0 0.00 0.04 0.01 96 1002.4
20260509093145 34 222 0.0 0.0 0.00 0.04 0.01 96 1002.5
20260509091502 34 222 0.0 0.0 0.00 0.04 0.01 96 1002.8
20260509084557 34 222 0.0 0.0 0.01 0.04 0.01 95 1003.3
20260509083047 34 222 0.0 0.0 0.01 0.04 0.01 95 1003.5
20260509081556 34 222 0.0 0.0 0.01 0.04 0.01 95 1003.6
20260509080053 35 222 0.0 0.0 0.00 0.03 0.00 95 1003.8
20260509074503 35 222 0.0 0.0 0.00 0.03 0.03 94 1004.0
20260509073056 35 222 0.0 0.0 0.01 0.03 0.03 94 1003.9
20260509071559 35 222 0.0 0.0 0.01 0.03 0.03 93 1004.1
20260509070044 35 222 0.0 0.0 0.01 0.03 0.03 93 1004.3
20260509064559 35 222 0.0 0.9 0.01 0.03 0.03 93 1004.3
20260509063055 36 222 0.0 0.0 0.00 0.02 0.02 93 1004.4
20260509061553 36 222 0.0 0.0 0.01 0.02 0.02 92 1004.7
20260509060002 36 222 0.0 0.0 0.01 0.02 0.02 91 1004.7
20260509054616 36 222 0.0 0.0 0.02 0.02 0.02 91 1004.7
20260509053141 36 222 0.0 0.9 0.02 0.02 0.02 90 1004.6
20260509051552 37 250 0.0 0.0 0.01 0.01 0.01 88 1004.8
20260509050005 37 250 0.0 0.0 0.01 0.01 0.01 87 1004.9
20260509044555 38 219 0.0 0.0 0.00 0.00 0.00 87 1005.1
20260509043050 38 150 0.0 0.0 0.00 0.00 0.00 84 1005.2
20260509041546 38 151 0.0 0.0 0.00 0.00 0.00 83 1005.3
20260509040113 39 304 0.0 0.9 0.00 0.00 0.00 82 1005.4
20260509034627 39 309 0.0 1.7 0.00 0.00 0.00 81 1005.5
20260509033049 39 129 0.0 0.0 0.00 0.00 0.00 80 1005.8
20260509031501 39 144 0.0 1.7 0.00 0.00 0.00 81 1005.9
20260509030109 40 226 0.0 0.9 0.00 0.00 0.00 82 1005.9
20260509024554 40 124 0.9 3.5 0.00 0.00 0.00 80 1006.0
20260509023052 40 156 0.9 4.3 0.00 0.00 0.00 77 1006.0
20260509021504 41 96 0.0 2.6 0.00 0.00 0.00 71 1006.2
20260509020056 42 182 1.7 7.0 0.00 0.00 0.00 68 1006.2
20260509014600 43 204 0.0 4.3 0.00 0.00 0.00 63 1006.1
20260509013102 43 162 2.6 6.1 0.00 0.00 0.00 62 1006.2
20260509011503 44 162 0.9 6.1 0.00 0.00 0.00 63 1006.4
20260509010056 43 232 2.6 9.6 0.00 0.00 0.00 65 1006.4
20260509004549 44 253 3.5 7.8 0.00 0.00 0.00 63 1006.5
20260509003134 44 241 3.5 7.8 0.00 0.00 0.00 62 1006.7
20260509001606 44 41 3.5 6.1 0.00 0.00 0.00 63 1006.9
20260509000106 44 84 3.5 7.8 0.00 0.00 0.00 61 1007.0
20260508234546 45 236 4.3 10.4 0.00 0.00 0.00 58 1007.2
20260508233058 45 194 4.3 8.7 0.00 0.00 0.00 56 1007.1
20260508231553 45 89 1.7 6.1 0.00 0.00 0.00 56 1007.3
20260508230043 45 193 3.5 9.6 0.00 0.00 0.00 58 1007.4
20260508224606 45 281 4.3 7.8 0.00 0.00 0.00 57 1007.7
20260508223046 44 195 3.5 11.3 0.00 0.00 0.00 57 1007.8
20260508221507 45 241 4.3 12.2 0.00 0.00 0.00 54 1007.8
20260508220055 46 151 2.6 8.7 0.00 0.00 0.00 53 1008.0
20260508214554 46 252 3.5 11.3 0.00 0.00 0.00 51 1008.1
20260508213046 46 103 2.6 8.7 0.00 0.00 0.00 54 1008.1
20260508211559 46 146 4.3 10.4 0.00 0.00 0.00 55 1008.4
20260508210048 46 214 3.5 8.7 0.00 0.00 0.00 48 1008.4
20260508204547 45 243 4.3 8.7 0.00 0.00 0.00 53 1008.5
20260508203001 46 223 3.5 8.7 0.00 0.00 0.00 50 1008.7
20260508201610 47 245 4.3 10.4 0.00 0.00 0.00 50 1008.7
20260508200108 46 219 3.5 7.8 0.00 0.00 0.00 49 1008.8
20260508193059 46 49 0.0 3.5 0.00 0.00 0.00 50 1009.0
20260508191504 45 247 1.7 3.5 0.00 0.00 0.00 49 1009.2
20260508190059 44 99 0.9 5.2 0.00 0.00 0.00 52 1009.4
20260508184608 44 79 3.5 7.0 0.00 0.00 0.00 52 1009.6
20260508183058 44 117 2.6 5.2 0.00 0.00 0.00 52 1009.8
20260508181503 44 167 1.7 4.3 0.00 0.00 0.00 52 1010.1
20260508180054 44 71 1.7 5.2 0.00 0.00 0.00 53 1010.3
20260508174602 43 99 2.6 5.2 0.00 0.00 0.00 53 1010.5
20260508173043 43 42 0.9 6.1 0.00 0.00 0.00 56 1010.8
20260508171601 42 36 0.9 5.2 0.00 0.00 0.00 57 1011.0
20260508170046 41 293 0.9 3.5 0.00 0.00 0.00 59 1011.2
20260508164504 41 44 0.9 6.1 0.00 0.00 0.00 59 1011.5
20260508163116 41 51 0.9 2.6 0.00 0.00 0.00 59 1011.8
20260508161558 40 82 0.0 2.6 0.00 0.00 0.00 61 1012.0
20260508160052 40 67 0.9 2.6 0.00 0.00 0.00 63 1012.1
20260508154552 39 86 0.9 1.7 0.00 0.00 0.00 65 1012.2
20260508153057 37 63 0.0 1.7 0.00 0.00 0.00 69 1012.5
20260508151554 35 67 0.0 0.0 0.00 0.00 0.00 72 1012.6
20260508150046 34 66 0.0 0.0 0.00 0.00 0.00 74 1012.8
20260508144503 35 66 0.0 0.0 0.00 0.00 0.00 73 1013.0
20260508143052 32 63 0.0 0.0 0.00 0.00 0.00 78 1013.2
20260508141547 30 219 0.0 0.0 0.00 0.00 0.00 81 1013.4
20260508140044 29 219 0.0 0.0 0.00 0.00 0.00 83 1013.6